TimeEST,TemperatureF,Dew PointF,Humidity,Sea Level PressureIn,VisibilityMPH,Wind Direction,Wind SpeedMPH,Gust SpeedMPH,PrecipitationIn,Events,Conditions,WindDirDegrees,DateUTC
12:51 AM,35.1,34.0,96,29.67,10.0,ENE,5.8,-,0.00,,Overcast,60,2012-12-18 05:51:00
1:37 AM,35.6,35.6,100,29.61,10.0,ENE,5.8,-,0.00,,Overcast,60,2012-12-18 06:37:00
1:51 AM,36.0,35.1,97,29.65,8.0,NE,4.6,-,0.01,Snow,Light Snow,40,2012-12-18 06:51:00
2:51 AM,36.0,35.1,97,29.62,9.0,ENE,4.6,-,0.02,,Overcast,60,2012-12-18 07:51:00
3:05 AM,35.6,35.6,100,29.57,6.0,ENE,4.6,-,0.01,Rain,Light Rain,60,2012-12-18 08:05:00
3:51 AM,37.0,35.1,93,29.59,8.0,ENE,4.6,-,0.04,Rain,Light Rain,70,2012-12-18 08:51:00
5:51 AM,35.1,34.0,96,29.54,10.0,NE,4.6,-,0.01,,Overcast,40,2012-12-18 10:51:00
6:51 AM,35.1,34.0,96,29.52,10.0,NNE,5.8,-,0.03,Snow,Light Snow,30,2012-12-18 11:51:00
7:51 AM,35.1,34.0,96,29.51,9.0,NE,5.8,-,0.02,,Overcast,50,2012-12-18 12:51:00
8:09 AM,35.6,33.8,93,29.47,9.0,ENE,4.6,-,0.00,,Overcast,60,2012-12-18 13:09:00
8:29 AM,35.6,33.8,93,29.47,7.0,Calm,Calm,-,0.00,Snow,Light Snow,0,2012-12-18 13:29:00
8:51 AM,36.0,34.0,93,29.51,8.0,ENE,3.5,-,0.01,,Overcast,70,2012-12-18 13:51:00
9:25 AM,35.6,33.8,93,29.46,4.0,NE,5.8,-,0.01,Snow,Light Snow,40,2012-12-18 14:25:00
9:51 AM,36.0,34.0,93,29.49,9.0,NNE,4.6,-,0.01,Snow,Light Snow,30,2012-12-18 14:51:00
10:36 AM,37.4,35.6,93,29.43,10.0,ENE,5.8,-,0.00,,Overcast,70,2012-12-18 15:36:00
10:51 AM,37.0,35.1,93,29.47,10.0,ENE,6.9,-,0.00,,Overcast,60,2012-12-18 15:51:00
11:51 AM,37.9,36.0,93,29.44,10.0,NE,5.8,-,N/A,,Overcast,50,2012-12-18 16:51:00
12:51 PM,37.9,36.0,93,29.42,10.0,ENE,4.6,-,N/A,,Overcast,70,2012-12-18 17:51:00
1:37 PM,37.4,35.6,93,29.39,10.0,NE,4.6,-,N/A,,Overcast,40,2012-12-18 18:37:00
2:05 PM,37.4,35.6,93,29.39,10.0,NNE,4.6,-,N/A,,Overcast,30,2012-12-18 19:05:00
2:32 PM,35.6,35.6,100,29.39,4.0,NNE,4.6,-,0.00,,Overcast,20,2012-12-18 19:32:00
2:37 PM,35.6,35.6,100,29.39,3.0,North,3.5,-,0.00,,Overcast,10,2012-12-18 19:37:00
2:51 PM,36.0,35.1,97,29.43,4.0,Calm,Calm,-,0.01,Rain,Light Rain,0,2012-12-18 19:51:00
3:06 PM,35.6,35.6,100,29.39,4.0,Calm,Calm,-,0.00,,Overcast,0,2012-12-18 20:06:00
3:25 PM,35.6,35.6,100,29.40,3.0,Calm,Calm,-,0.00,,Overcast,0,2012-12-18 20:25:00
3:35 PM,35.6,35.6,100,29.40,2.5,Calm,Calm,-,0.01,,Overcast,0,2012-12-18 20:35:00
3:49 PM,35.6,35.6,100,29.40,4.0,Calm,Calm,-,0.01,,Overcast,0,2012-12-18 20:49:00
3:51 PM,36.0,35.1,97,29.44,4.0,Calm,Calm,-,0.01,,Overcast,0,2012-12-18 20:51:00
4:00 PM,35.6,35.6,100,29.40,5.0,Calm,Calm,-,0.00,,Overcast,0,2012-12-18 21:00:00
4:42 PM,35.6,33.8,93,29.41,5.0,Calm,Calm,-,0.01,,Overcast,0,2012-12-18 21:42:00
4:51 PM,35.1,34.0,96,29.45,4.0,Calm,Calm,-,0.02,Snow,Light Snow,0,2012-12-18 21:51:00
5:12 PM,35.6,33.8,93,29.41,5.0,Calm,Calm,-,0.01,,Overcast,0,2012-12-18 22:12:00
5:39 PM,35.6,33.8,93,29.42,5.0,Calm,Calm,-,0.03,Rain,Light Rain,0,2012-12-18 22:39:00
5:51 PM,35.1,34.0,96,29.46,7.0,Calm,Calm,-,0.03,,Overcast,0,2012-12-18 22:51:00
6:00 PM,35.6,33.8,93,29.42,7.0,Calm,Calm,-,0.00,,Overcast,0,2012-12-18 23:00:00
6:47 PM,33.8,33.8,100,29.43,5.0,NW,3.5,-,0.01,,Overcast,310,2012-12-18 23:47:00
6:51 PM,35.1,34.0,96,29.48,5.0,Calm,Calm,-,0.01,,Overcast,0,2012-12-18 23:51:00
6:58 PM,35.6,33.8,93,29.44,5.0,Calm,Calm,-,0.01,,Overcast,0,2012-12-18 23:58:00
7:51 PM,34.0,33.1,96,29.49,10.0,West,5.8,-,0.01,,Overcast,270,2012-12-19 00:51:00
9:51 PM,30.9,28.9,92,29.53,2.5,WSW,6.9,-,0.00,Snow,Light Snow,240,2012-12-19 02:51:00
10:08 PM,30.2,28.4,93,29.49,1.8,WSW,5.8,-,0.00,Snow,Light Snow,250,2012-12-19 03:08:00
10:21 PM,30.2,28.4,93,29.50,2.5,West,4.6,-,0.00,Snow,Light Snow,260,2012-12-19 03:21:00
10:29 PM,30.2,28.4,93,29.50,3.0,Variable,3.5,-,0.00,Snow,Light Snow,0,2012-12-19 03:29:00
10:37 PM,30.2,28.4,93,29.50,2.5,WSW,3.5,-,0.00,Snow,Light Snow,250,2012-12-19 03:37:00
10:49 PM,30.2,28.4,93,29.50,1.5,WSW,5.8,-,0.00,Snow,Light Snow,250,2012-12-19 03:49:00
10:51 PM,30.0,28.9,96,29.55,1.8,WSW,5.8,-,0.00,Snow,Light Snow,250,2012-12-19 03:51:00
10:58 PM,30.2,28.4,93,29.51,2.5,WSW,5.8,-,0.00,Snow,Light Snow,240,2012-12-19 03:58:00
11:05 PM,30.2,28.4,93,29.51,3.0,WSW,8.1,-,0.00,Snow,Light Snow,240,2012-12-19 04:05:00
11:51 PM,30.0,28.0,92,29.55,3.0,WSW,8.1,-,0.00,Snow,Light Snow,250,2012-12-19 04:51:00